Regional Weather Roundup
Issued by NWS

Home | Current Version | Previous Version | Graphics & Text | Print | Product List | Glossary On
Versions: 1 2 3 4 5 6 7 8 9 10 11 12 13 14 15 16 17 18 19 20 21 22 23 24 25 26 27
000
ASUS45 KBOI 281710
RWRID

IDAHO REGIONAL WEATHER ROUNDUP
NATIONAL WEATHER SERVICE BOISE ID
1100 AM MDT THU JUL 28 2016

NOTE: "FAIR" INDICATES FEW OR NO CLOUDS BELOW 12000 FEET
WITH NO SIGNIFICANT WEATHER AND/OR OBSTRUCTIONS TO VISIBILITY

IDZ012-014-281800-
SOUTHWEST IDAHO


CITY           SKY/WX    TMP DP  RH WIND       PRES   REMARKS
BOISE          SUNNY     82  47  29 VRB6      30.08S
CALDWELL       SUNNY     83  55  38 W5        30.07S
MOUNTAIN HOME  SUNNY     86  44  22 NE5       30.08F
$$

IDZ016-017-281800-
SOUTHCENTRAL IDAHO


CITY           SKY/WX    TMP DP  RH WIND       PRES   REMARKS
BURLEY         SUNNY     79  47  32 VRB5      30.15F
JEROME         SUNNY     76  45  33 VRB3      30.16S
TWIN FALLS     SUNNY     82  42  24 NW9       30.15F
$$

IDZ019>023-281800-
SOUTHEAST IDAHO


CITY           SKY/WX    TMP DP  RH WIND       PRES   REMARKS
IDAHO FALLS    SUNNY     79  45  29 NE7       30.18F
POCATELLO      SUNNY     81  45  28 N6        30.17F
REXBURG        SUNNY     76  45  33 VRB3      30.19F
$$

IDZ006-010-011-018-031-032-281800-
CENTRAL IDAHO MOUNTAINS


CITY           SKY/WX    TMP DP  RH WIND       PRES   REMARKS
MCCALL         SUNNY     78  48  34 CALM      30.22F
HAILEY         SUNNY     77  46  33 SE9       30.25F
STANLEY          N/A     71  38  29 NE3       30.32F
SALMON         SUNNY     75  46  35 NW3       30.16S
CHALLIS        SUNNY     76  45  33 CALM      30.21F
$$

IDZ002-004-006-007-026-281800-
NORTHERN IDAHO


CITY           SKY/WX    TMP DP  RH WIND       PRES   REMARKS
LEWISTON       SUNNY     82  53  36 N3        30.05F
LOWELL           N/A     74  59  59 CALM      30.08F
COEUR D`ALENE  SUNNY     79  55  44 NE12      30.09S
MULLAN PASS    SUNNY     69  47  45 CALM      30.31R
$$




USA.gov is the U.S. government's official web portal to all federal, state and local government web resources and services.